TimeSAST,TemperatureF,Dew PointF,Humidity,Sea Level PressureIn,VisibilityMPH,Wind Direction,Wind SpeedMPH,Gust SpeedMPH,PrecipitationIn,Events,Conditions,WindDirDegrees,DateUTC
12:00 AM,53.6,50.0,88,30.15,-9999.0,West,2.3,-,N/A,,Clear,270,2013-10-02 22:00:00
1:00 AM,50.0,48.2,94,30.12,-9999.0,North,4.6,-,N/A,,Clear,350,2013-10-02 23:00:00
2:00 AM,53,50,87,30.14,6,,2.3,,,,,,2013-10-03 00:00:00
2:00 AM,53.6,50.0,88,30.12,6.2,Variable,2.3,-,N/A,,Mostly Cloudy,0,2013-10-03 00:00:00
3:00 AM,53.6,50.0,88,30.12,6.2,NNW,4.6,-,N/A,,Scattered Clouds,330,2013-10-03 01:00:00
4:00 AM,55.4,51.8,88,30.12,6.2,NNW,4.6,-,N/A,,Overcast,330,2013-10-03 02:00:00
5:00 AM,55,52,85,30.11,12,NNE,3.5,,,,Mostly Cloudy,30,2013-10-03 03:00:00
5:00 AM,55.4,51.8,88,30.09,6.2,North,3.5,-,N/A,,Mostly Cloudy,10,2013-10-03 03:00:00
6:00 AM,55.4,50.0,82,30.12,6.2,Variable,2.3,-,N/A,,Mostly Cloudy,0,2013-10-03 04:00:00
7:00 AM,57.2,51.8,82,30.12,6.2,Variable,2.3,-,N/A,,Mostly Cloudy,0,2013-10-03 05:00:00
8:00 AM,60,51,64,30.13,12,Calm,Calm,,,,Mostly Cloudy,0,2013-10-03 06:00:00
8:00 AM,59.0,51.8,77,30.12,6.2,Variable,1.2,-,N/A,,Mostly Cloudy,0,2013-10-03 06:00:00
9:00 AM,62.6,51.8,68,30.09,6.2,East,8.1,-,N/A,,Scattered Clouds,80,2013-10-03 07:00:00
10:00 AM,66.2,51.8,60,30.06,6.2,East,8.1,-,N/A,,Partly Cloudy,100,2013-10-03 08:00:00
11:00 AM,66,53,53,30.07,12,SE,12.7,,,,Clear,140,2013-10-03 09:00:00
11:00 AM,66.2,53.6,64,30.06,-9999.0,SE,12.7,-,N/A,,Clear,130,2013-10-03 09:00:00
12:00 PM,66.2,53.6,64,30.04,6.2,SSE,13.8,-,N/A,,Partly Cloudy,150,2013-10-03 10:00:00
1:00 PM,66.2,53.6,64,30.04,6.2,SSE,8.1,-,N/A,,Partly Cloudy,150,2013-10-03 11:00:00
2:00 PM,67,54,54,30.03,12,SSE,9.2,,,,Scattered Clouds,150,2013-10-03 12:00:00
2:00 PM,66.2,53.6,64,30.01,6.2,SSE,9.2,-,N/A,,Partly Cloudy,150,2013-10-03 12:00:00
3:00 PM,68.0,55.4,64,30.01,6.2,SE,6.9,-,N/A,,Partly Cloudy,130,2013-10-03 13:00:00
4:00 PM,66.2,55.4,68,30.01,6.2,SE,10.4,-,N/A,,Partly Cloudy,140,2013-10-03 14:00:00
5:00 PM,63,55,67,30.04,12,SSE,10.4,,,,Scattered Clouds,150,2013-10-03 15:00:00
5:00 PM,62.6,55.4,77,30.04,6.2,SSE,10.4,-,N/A,,Partly Cloudy,150,2013-10-03 15:00:00
6:00 PM,62.6,55.4,77,30.06,6.2,SSE,6.9,-,N/A,,Mostly Cloudy,150,2013-10-03 16:00:00
7:00 PM,62.6,55.4,77,30.06,6.2,South,5.8,-,N/A,,Mostly Cloudy,170,2013-10-03 17:00:00
8:00 PM,62,56,75,30.11,12,South,4.6,,,,Mostly Cloudy,170,2013-10-03 18:00:00
8:00 PM,62.6,55.4,77,30.09,6.2,South,4.6,-,N/A,,Mostly Cloudy,170,2013-10-03 18:00:00
9:00 PM,60.8,55.4,82,30.12,6.2,South,8.1,-,N/A,Rain,Light Rain,180,2013-10-03 19:00:00
10:00 PM,60.8,57.2,88,30.12,5.6,South,9.2,-,N/A,Rain,Rain,190,2013-10-03 20:00:00
11:00 PM,59.0,55.4,88,30.12,6.2,SSW,4.6,-,N/A,Rain,Light Rain,200,2013-10-03 21:00:00